RH
88 81 86 89 92 86 95 86 91 74 99 96 100 98 92 53 49 50 50 59 58 60 50 47 41 41 58 46 65 63 62 50 50 35 30 30 30 36 38 49 45 59 59 41
83 83 82 92 92 91 92 95 82 70 99 94 91 99 94 61 61 59 60 67 64 56 52 50 42 48 46 42 61 70 63 67 68 53 42 53 61 59 55 58 55 53 57 40
84 78 82 89 81 76 98 97 100 95 97 84 86 96 86 79 60 57 62 67 62 60 62 54 54 50 43 47 52 78 61 64 66 63 62 65 66 52 47 51 67 58 53 46
84 83 91 87 82 73 92 96 95 83 98 91 96 90 96 79 69 57 56 70 67 69 72 65 57 49 47 42 49 62 61 60 62 49 52 62 57 50 45 51 48 55 42 46
72 89 88 89 88 93 98 100 100 98 87 86 98 96 99 80 69 60 66 69 66 65 70 60 56 56 48 50 48 71 60 68 78 76 66 59 62 52 47 46 44 43 48 50
86 94 95 86 91 91 88 86 98 97 85 79 93 80 84 87 64 60 50 63 75 79 65 60 58 57 55 54 60 60 64 82 79 68 71 60 61 58 48 39 33 36 38 27
89 85 81 82 84 89 88 92 98 99 92 94 82 73 91 76 68 74 62 58 80 58 50 56 61 66 67 64 64 58 70 82 91 86 80 71 36 42 40 43 38 33 36 40
82 83 81 83 83 82 98 88 98 99 89 80 76 74 81 96 75 75 77 66 54 60 73 86 80 80 85 80 75 74 63 81 89 87 79 55 39 34 32 40 30 45 56 55
82 83 77 74 67 75 92 95 97 97 100 85 64 75 75 94 100 99 88 70 66 61 98 97 88 83 72 80 73 82 85 74 86 92 76 76 43 53 53 47 47 48 56 49
94 95 94 92 79 81 89 91 99 97 99 86 70 74 87 96 91 91 86 81 94 78 99 91 85 76 66 70 72 80 88 96 90 92 86 68 49 43 51 55 41 46 53 48
96 98 100 99 97 93 96 96 99 96 100 95 73 63 80 87 98 98 81 94 95 99 96 90 86 88 73 62 72 75 71 77 81 79 94 84 47 63 62 45 52 53 50 52
98 94 95 100 95 88 95 96 100 100 98 96 81 70 66 62 70 73 78 69 83 87 84 85 78 88 86 70 71 75 78 68 72 71 65 54 55 59 57 59 64 59 59 52
93 89 97 98 96 93 98 98 100 99 100 99 96 94 79 74 70 60 85 71 70 77 75 85 82 79 79 84 77 69 71 65 70 68 51 50 47 51 73 67 74 70 64 59
95 95 89 93 96 97 99 98 99 95 98 100 99 89 81 75 72 76 68 63 69 76 84 88 88 83 67 75 61 70 56 66 69 65 53 62 54 79 79 72 68 67 65 66
96 97 97 87 84 86 99 98 100 95 85 95 89 84 75 66 71 74 76 69 73 82 92 100 98 79 80 82 76 69 66 66 74 65 90 90 80 72 76 75 74 68 70 74
84 86 88 95 95 98 99 100 100 92 78 99 98 76 81 74 79 79 76 79 79 83 98 99 86 71 76 88 82 82 82 80 81 82 84 82 81 77 75 77 73 69 69 70
83 81 81 86 89 100 96 95 92 89 78 99 91 81 82 79 75 82 85 79 88 94 98 98 96 89 79 100 92 89 75 75 75 87 86 83 85 88 75 74 69 68 69 74
82 78 79 83 93 99 97 93 99 86 96 96 97 94 98 85 94 94 89 97 96 98 97 98 91 93 97 100 89 78 74 74 75 80 81 94 89 77 76 72 70 74 77 76
84 81 85 99 95 98 99 98 94 85 89 98 95 95 91 97 92 93 95 86 100 92 99 100 98 97 97 94 89 86 84 86 86 78 74 84 85 81 80 78 77 79 81 78
100 94 95 100 99 99 97 97 92 98 94 98 94 92 98 96 97 99 95 98 100 100 100 91 92 93 90 86 84 84 83 81 81 84 83 82 84 84 85 87 83 81 79 84
90 100 98 98 95 93 97 100 96 100 98 93 92 95 96 98 100 98 96 98 99 99 100 94 91 89 89 78 76 78 82 81 86 90 92 91 91 90 91 89 88 90 91 89
95 94 88 86 87 97 94 98 97 97 94 100 98 99 99 99 99 100 97 97 97 95 92 84 92 89 81 79 80 81 83 85 88 88 88 90 89 92 91 90 89 92 93 94
44 72 76 74 83 86 91 97 96 95 95 96 99 100 100 100 98 100 92 92 94 79 87 90 89 83 76 77 75 82 87 91 86 91 93 93 93 93 92 91 96 94 94 96
80 78 88 89 93 94 96 95 95 95 96 96 98 100 98 97 92 94 90 96 80 90 89 93 87 85 86 84 85 81 91 90 91 93 93 93 93 94 95 96 96 94 94 97
83 78 99 95 95 94 94 95 95 92 94 97 99 93 88 93 91 90 86 86 94 89 93 92 91 91 88 90 92 92 92 94 94 94 94 94 94 94 94 96 96 96 96 96
82 88 92 93 94 94 95 96 95 91 94 96 91 93 91 94 90 84 98 82 93 93 93 90 89 92 93 94 93 94 94 94 94 94 95 95 94 94 95 96 97 97 97 97
89 96 95 95 95 95 95 96 92 93 95 96 90 90 98 70 83 90 87 94 94 94 93 91 92 92 93 94 93 94 94 94 95 95 95 95 97 96 89 88 94 95 98 100
Wind_Speed
22 21 17 16 15 14 8 3 3 4 21 6 2 3 6 6 4 2 5 3 6 4 4 7 6 6 5 14 5 3 3 3 4 6 1 2 2 1 3 7 6 1 0 5
22 21 20 16 17 14 4 2 3 6 15 6 8 3 3 6 4 3 1 2 1 2 5 5 3 3 4 9 11 5 5 2 3 2 2 4 6 3 2 2 1 5 4 4
24 24 24 18 19 18 14 2 3 4 5 8 10 8 9 8 6 9 1 2 3 2 2 2 3 4 4 10 6 8 2 2 2 3 3 3 1 3 3 1 2 1 5 8
26 27 23 19 21 21 13 4 5 3 3 8 13 9 7 14 10 9 10 4 8 2 2 3 3 2 6 7 9 5 2 2 2 2 4 5 5 7 7 5 8 6 6 11
27 27 24 21 23 23 17 3 3 3 2 5 13 11 9 18 14 11 8 11 6 9 12 10 10 2 4 4 5 5 8 2 2 3 9 8 7 8 10 13 14 13 14 12
29 28 25 25 26 27 12 11 6 2 5 9 8 14 18 14 13 10 14 11 9 13 15 11 12 12 9 6 5 3 4 2 3 2 2 1 6 8 14 8 9 6 10 12
29 29 29 30 32 33 25 7 4 5 7 10 13 13 15 17 20 13 11 13 13 2 4 5 4 4 8 9 8 7 2 2 2 2 1 5 2 4 4 7 12 14 14 12
34 34 34 35 35 35 31 24 8 4 8 9 15 16 15 9 14 19 14 14 10 7 2 3 4 1 1 6 10 10 10 3 2 2 4 8 10 6 4 6 10 3 3 7
39 40 40 39 38 37 34 32 27 5 3 12 13 11 13 11 7 5 11 5 8 7 2 3 3 3 2 2 3 3 9 4 4 3 3 5 3 1 1 2 6 4 4 8
40 42 43 44 43 41 38 23 37 12 4 5 11 10 12 6 7 5 5 9 7 8 3 3 4 3 2 3 3 5 6 3 10 4 4 7 10 8 2 2 2 2 3 10
39 39 44 49 45 43 39 29 30 27 3 4 8 12 10 8 4 4 5 5 4 5 6 5 4 4 4 3 3 5 8 8 5 6 5 8 3 4 4 2 6 8 9 8
32 31 31 42 42 40 38 22 33 37 4 1 18 18 17 21 20 8 9 4 6 6 4 4 3 3 2 6 4 2 5 6 5 8 6 0 3 2 6 10 10 10 13 15
27 25 25 32 35 36 36 14 28 27 3 2 3 7 23 24 22 18 6 4 6 5 3 3 2 3 4 5 5 5 3 4 4 2 5 13 10 2 6 10 11 14 15 15
33 32 27 28 27 30 30 16 22 12 3 2 2 6 10 22 25 16 13 2 4 5 1 1 2 2 4 4 2 5 5 6 5 8 9 10 3 9 12 13 12 14 15 12
24 26 36 34 33 32 32 25 29 24 3 2 2 0 12 16 23 23 18 13 5 2 4 3 4 2 2 0 0 3 3 4 4 5 3 4 7 12 11 11 13 13 13 13
24 26 29 31 33 34 24 3 25 32 15 2 3 2 3 14 16 19 14 10 6 5 3 2 3 4 2 3 3 3 4 4 4 2 5 8 8 2 10 9 11 10 10 10
23 25 28 30 29 33 6 4 12 39 21 2 1 2 2 8 7 4 4 11 5 4 3 3 2 1 5 2 3 5 5 6 6 3 6 5 6 4 9 10 10 8 9 11
22 23 25 28 30 22 9 5 34 35 9 2 3 2 2 8 4 4 3 3 4 6 4 2 3 4 1 3 5 6 8 10 5 8 6 7 5 6 8 9 9 8 10 10
27 27 29 29 7 2 9 27 29 12 4 4 3 4 3 2 3 3 2 4 3 1 2 2 3 1 2 5 5 7 8 8 11 13 11 4 5 7 8 7 8 8 8 10
47 31 5 3 8 37 32 6 3 2 1 1 3 1 3 3 1 2 3 2 3 2 2 3 3 2 7 6 5 5 7 8 8 8 5 7 6 7 8 9 7 8 8 9
6 3 3 35 26 5 2 3 3 3 3 4 3 5 4 2 3 4 2 4 3 4 3 4 2 2 3 6 7 7 7 7 7 6 6 6 7 7 7 10 10 12 13 12
12 18 15 6 5 4 4 2 3 3 2 2 3 3 3 3 3 3 4 3 3 3 2 3 3 3 4 5 6 8 8 9 10 11 9 11 12 12 11 11 13 16 18 21
9 6 5 3 4 7 3 2 2 2 3 3 1 1 2 3 1 2 2 4 3 3 3 2 2 5 5 5 6 9 11 13 13 12 16 18 19 19 18 16 18 20 22 21
5 4 6 4 4 3 3 2 1 2 3 4 2 1 3 3 3 3 5 3 2 3 2 2 2 5 6 7 8 9 11 12 13 12 16 17 18 19 21 20 19 21 22 22
5 5 5 4 2 2 3 3 2 3 4 2 1 3 3 4 4 4 3 3 4 3 2 2 5 7 8 8 9 10 11 10 10 12 14 16 18 19 20 21 21 21 21 22
4 6 3 3 1 4 3 3 2 4 4 2 2 3 4 5 3 5 3 2 2 2 2 4 7 8 8 9 10 10 13 14 14 15 16 18 18 18 19 21 22 22 21 21
4 3 2 1 0 2 3 2 4 3 2 2 3 4 3 2 3 3 3 2 3 6 6 6 8 9 9 8 12 13 13 13 14 14 15 16 15 16 19 19 18 19 19 21
Wind_Direction
259 261 253 253 256 256 271 246 237 216 177 198 187 197 179 188 252 348 233 236 237 255 328 349 344 6 3 343 325 56 20 108 233 241 195 63 46 192 207 233 228 130 308 243
253 255 253 242 245 237 204 227 243 227 199 224 225 162 208 216 192 206 307 284 14 295 267 266 245 318 310 360 8 21 359 36 127 115 97 45 83 68 107 177 139 207 239 270
256 251 243 237 239 236 218 206 244 192 216 234 232 217 204 206 199 228 166 275 300 292 346 327 300 313 317 335 353 340 356 94 81 185 81 98 88 332 4 103 181 208 249 274
253 251 241 230 236 233 216 215 226 213 198 219 234 231 190 201 201 200 197 235 220 241 310 302 248 274 355 344 351 358 45 175 147 195 184 169 205 262 279 243 255 252 279 253
250 248 240 230 235 233 224 221 197 187 249 234 217 213 213 203 199 179 201 214 186 216 233 234 270 333 328 266 338 8 344 154 137 233 265 262 251 245 257 254 256 254 249 254
250 243 237 235 231 225 221 219 216 283 202 216 232 224 223 215 207 221 209 190 227 241 249 255 256 257 241 258 295 325 325 152 147 214 12 280 273 227 222 229 233 244 258 275
252 248 242 237 232 227 222 200 178 194 227 209 217 227 225 219 201 204 209 212 228 251 354 306 261 248 243 244 234 201 240 93 7 162 287 233 270 309 282 257 270 269 275 285
247 243 239 237 234 232 222 223 227 207 233 224 227 227 225 243 230 207 194 205 211 221 297 286 299 278 300 241 224 197 205 154 140 225 215 302 300 289 227 201 282 33 294 296
252 246 240 237 235 232 227 227 224 217 229 223 216 218 219 222 207 201 218 128 171 190 194 201 215 237 233 183 207 172 159 193 218 184 209 239 239 203 14 242 295 217 262 322
251 248 241 234 231 230 226 233 216 214 231 200 192 210 206 176 207 220 160 186 200 196 180 190 209 241 259 239 198 160 157 165 215 194 226 272 247 263 244 206 316 212 281 325
252 251 247 232 226 226 221 227 215 200 210 207 219 193 177 183 211 167 147 133 184 170 180 197 181 202 227 216 162 166 177 177 191 212 234 268 201 143 200 360 322 295 291 304
252 251 236 219 221 222 219 222 207 199 201 213 213 220 208 195 189 196 167 207 158 165 177 197 180 184 201 189 203 191 197 187 190 203 208 243 214 270 299 347 315 307 304 296
239 235 224 214 216 219 210 174 172 179 144 154 200 201 210 215 217 204 182 212 167 173 179 166 195 205 163 178 217 205 236 176 219 235 229 254 278 352 22 350 341 335 320 293
238 229 221 211 200 193 187 165 172 127 122 178 223 195 206 213 210 223 225 177 148 100 44 1 235 224 193 211 237 200 216 151 212 251 266 313 324 39 359 344 351 347 350 9
230 219 211 206 203 197 191 187 180 181 141 133 168 269 228 215 213 230 219 212 219 166 189 194 202 218 175 227 242 218 189 193 214 269 46 309 296 323 355 352 349 350 350 335
210 204 201 204 202 187 173 169 191 186 164 142 158 261 216 202 205 209 212 211 213 199 188 180 217 215 184 206 233 104 59 46 37 243 331 279 297 351 20 355 350 357 1 354
197 193 195 195 186 173 156 191 180 176 166 134 162 254 228 186 166 187 200 203 220 195 170 192 216 242 183 209 229 64 12 338 308 328 330 245 46 339 357 1 354 19 44 28
187 178 176 176 171 163 171 317 159 150 107 183 169 222 173 160 159 170 146 183 179 179 177 210 207 151 164 230 52 12 352 330 294 356 338 292 319 44 23 19 9 28 44 43
166 159 152 129 103 111 129 149 138 126 137 150 160 163 196 166 154 143 151 153 203 178 165 159 152 36 183 44 5 0 354 340 324 323 311 0 61 52 37 29 34 46 46 64
123 118 82 112 113 124 115 100 108 85 59 150 196 172 167 169 127 107 131 128 169 168 145 100 67 76 90 50 38 8 349 338 337 342 341 352 35 57 51 51 52 65 69 67
77 126 76 113 129 140 136 110 127 135 188 189 197 193 170 155 155 154 207 162 155 182 117 146 131 129 65 22 26 22 18 21 21 38 41 37 47 60 68 66 61 66 75 77
94 109 95 62 36 45 84 112 140 190 189 134 178 172 199 151 146 166 177 128 152 158 98 97 133 91 51 40 40 38 45 54 56 53 59 61 66 69 75 76 76 74 76 74
83 56 63 35 335 50 57 115 50 69 4 351 355 129 195 184 89 98 123 99 86 119 52 87 70 57 46 49 57 60 59 65 65 62 65 70 72 70 75 76 73 79 74 73
61 55 50 60 10 34 45 339 298 321 323 327 331 69 48 356 62 6 71 46 73 73 93 113 78 76 74 69 71 74 66 62 62 62 67 68 68 66 64 71 76 80 75 74
60 34 45 55 347 348 328 319 332 343 305 310 96 45 49 24 68 30 101 56 68 38 122 91 99 87 85 78 73 72 68 65 64 66 72 74 76 76 71 66 70 75 80 79
72 46 33 344 38 346 348 335 327 340 337 293 29 81 63 43 52 50 30 86 107 134 93 110 101 86 79 78 73 68 69 73 76 73 76 77 74 77 80 75 69 67 71 71
46 35 359 25 333 297 309 312 318 306 332 58 42 55 53 72 67 67 27 95 118 111 99 89 89 91 84 77 73 72 73 71 70 75 76 78 81 86 81 76 73 77 76 76